TimeCST,TemperatureF,Dew PointF,Humidity,Sea Level PressureIn,VisibilityMPH,Wind Direction,Wind SpeedMPH,Gust SpeedMPH,PrecipitationIn,Events,Conditions,WindDirDegrees,DateUTC
12:53 AM,43.0,37.9,82,30.13,10.0,Calm,Calm,-,N/A,,Clear,0,2013-02-04 06:53:00
1:53 AM,43.0,39.9,89,30.12,10.0,Calm,Calm,-,N/A,,Clear,0,2013-02-04 07:53:00
2:53 AM,46.0,36.0,68,30.10,10.0,ESE,6.9,-,N/A,,Clear,120,2013-02-04 08:53:00
4:53 AM,45.0,36.0,71,30.10,10.0,East,3.5,-,N/A,,Clear,100,2013-02-04 10:53:00
5:53 AM,45.0,35.1,68,30.10,10.0,ESE,5.8,-,N/A,,Clear,110,2013-02-04 11:53:00
6:53 AM,44.1,37.0,76,30.10,10.0,ESE,6.9,-,N/A,,Clear,120,2013-02-04 12:53:00
7:53 AM,46.9,34.0,61,30.12,10.0,SSE,5.8,-,N/A,,Clear,150,2013-02-04 13:53:00
8:53 AM,48.9,35.1,59,30.12,10.0,SE,5.8,-,N/A,,Clear,130,2013-02-04 14:53:00
9:53 AM,52.0,33.1,49,30.11,10.0,SE,11.5,-,N/A,,Clear,140,2013-02-04 15:53:00
10:53 AM,54.0,35.1,49,30.11,10.0,SSE,5.8,-,N/A,,Clear,160,2013-02-04 16:53:00
11:53 AM,57.9,35.1,42,30.08,10.0,South,11.5,-,N/A,,Clear,170,2013-02-04 17:53:00
12:53 PM,59.0,36.0,42,30.04,10.0,South,9.2,-,N/A,,Clear,180,2013-02-04 18:53:00
1:53 PM,60.1,37.9,44,30.01,10.0,SSE,4.6,-,N/A,,Scattered Clouds,160,2013-02-04 19:53:00
2:53 PM,61.0,39.0,44,29.99,10.0,South,8.1,-,N/A,,Overcast,170,2013-02-04 20:53:00
3:53 PM,60.1,43.0,53,29.99,10.0,South,5.8,-,0.00,,Overcast,180,2013-02-04 21:53:00
4:53 PM,59.0,45.0,60,29.98,10.0,Calm,Calm,-,N/A,,Overcast,0,2013-02-04 22:53:00
5:53 PM,55.0,46.0,72,29.97,10.0,SE,3.5,-,N/A,,Clear,130,2013-02-04 23:53:00
6:53 PM,55.0,46.0,72,29.98,10.0,SSE,4.6,-,N/A,,Mostly Cloudy,150,2013-02-05 00:53:00
7:53 PM,55.9,44.1,64,29.99,10.0,SSE,5.8,-,N/A,,Mostly Cloudy,150,2013-02-05 01:53:00
8:53 PM,55.9,43.0,62,30.00,10.0,SSE,5.8,-,N/A,,Overcast,150,2013-02-05 02:53:00
9:53 PM,55.9,44.1,64,30.00,10.0,SSE,4.6,-,N/A,,Overcast,160,2013-02-05 03:53:00
10:53 PM,55.0,45.0,69,29.99,10.0,SSE,6.9,-,N/A,,Overcast,160,2013-02-05 04:53:00
11:53 PM,50.0,44.1,80,29.98,10.0,SSE,4.6,-,N/A,,Clear,160,2013-02-05 05:53:00